Flag for Switzerland Weather past 2 weeks in Olten, Solothurn, Switzerland

Now
56 °F

Cool.


Feels Like: 56 °F
Forecast: 54 / 77 °F
Wind: No wind

Location: Wynau

Current Time: Aug 3, 2015 at 5:30:43 AM

Latest Report: Aug 3, 2015 at 4:00 AM


Visibility: N/A

Pressure: 30.07 "Hg

Humidity: 97%

Dew point: 55 °F

Location of OltenLocation

Historic Weather in Olten — Graph

°F

Olten temperature yesterday

Maximum temperature yesterday: 80 °F (at 6:00 PM)
Minimum temperature yesterday: 56 °F (at 6:00 AM)
Average temperature yesterday: 67 °F

Past Weeks' High & Low Weather Summary

 TemperatureHumidityPressure
High92 °F (Jul 21, 6:00 PM)100% (Aug 2, 6:00 AM)30.12 "Hg (Aug 2, 6:00 AM)
Low47 °F (Jul 31, 6:00 AM)27% (Jul 21, 6:00 PM)29.63 "Hg (Jul 24, 6:00 PM)
Average68 °F68%29.93 "Hg
* Reported Jul 19 4:00 AM — Aug 3 4:00 AM, Olten, Weather by CustomWeather, © 2015

Note: Actual official high and low records may vary slightly from our data, if they occured in-between our weather recording intervals... More about our weather records

Advertising

Olten weather history for previous 24 hours

 ConditionsComfort  
Time TempWeatherWind HumidityBarometerVisibility
4:00 AM
Mon, Aug 3
56 °FCool.No wind97%30.07 "HgN/A
3:00 AM57 °FCool.1 mph98%30.07 "HgN/A
2:00 AM58 °FCool.2 mph96%30.06 "HgN/A
1:00 AM59 °FCool.No wind92%30.06 "HgN/A
12:00 AM60 °FCool.1 mph89%30.06 "HgN/A
11:00 PM
Sun, Aug 2
63 °FMild.No wind81%30.04 "HgN/A
10:00 PM66 °FMild.1 mph72%30.03 "HgN/A
9:00 PM69 °FMild.1 mph64%30.01 "HgN/A
8:00 PM77 °FMild.6 mph45%29.98 "HgN/A
7:00 PM79 °FPleasantly warm.9 mph39%29.97 "HgN/A
6:00 PM80 °FWarm.7 mph41%29.99 "HgN/A
5:00 PM79 °FWarm.9 mph41%30.00 "HgN/A
4:00 PM79 °FWarm.10 mph47%30.00 "HgN/A
3:00 PM78 °FWarm.8 mph50%30.02 "HgN/A
2:00 PM76 °FMild.7 mph53%30.03 "HgN/A
1:00 PM74 °FMild.8 mph61%30.05 "HgN/A
12:00 PM69 °FMild.5 mph68%30.09 "HgN/A
10:00 AM61 °FCool.1 mph90%30.12 "HgN/A
9:00 AM60 °FCool.2 mph92%30.12 "HgN/A
8:00 AM59 °FCool.1 mph94%30.12 "HgN/A
7:00 AM57 °FCool.No wind99%30.11 "HgN/A
6:00 AM56 °FCool.1 mph100%30.11 "HgN/A
5:00 AM57 °FCool.1 mph99%30.09 "HgN/A
Weather by CustomWeather, © 2015

See weather overviewHow to use our weather pages